Preview of NWS' New Version of Forecast
This preview is not operational and should not be used for support decisions.

Regional Weather Roundup (RWR)

Issued by National Weather Service (NWS)

                            
000
ASUS43 KLSX 212157
RWRMO 

WEATHER SUMMARY FOR MISSOURI
NATIONAL WEATHER SERVICE SPRINGFIELD MO
500 PM CDT SUN JUL 21 2019

NOTE: "FAIR" INDICATES FEW OR NO CLOUDS BELOW 12,000 FEET WITH NO
       SIGNIFICANT WEATHER AND/OR OBSTRUCTIONS TO VISIBILITY.
       CURRENT SKY AND/OR WEATHER CONDITIONS ARE NOT AVAILABLE FOR
       CHILLICOTHE AND FARMINGTON.

MOZ001>031-035>038-043-044-053-054-212300-
...NORTHERN AND WESTERN MISSOURI...
  
CITY           SKY/WX    TMP DP  RH WIND       PRES   REMARKS
KANSAS CTY INT PTSUNNY   82  71  69 NE9       29.98S                  
LEE'S SUMMIT   SUNNY     82  70  66 NE8       29.97S                  
ST JOSEPH      CLOUDY    79  69  71 NE7       29.99F                  
CHILLICOTHE      N/A     86  72  62 VRB5      29.98S HX  92           
     
$$
MOZ066>068-077>081-088>096-101>105-212300-
...SOUTHWEST MISSOURI...
  
CITY           SKY/WX    TMP DP  RH WIND       PRES   REMARKS
SPRINGFIELD    MOSUNNY   92  71  50 SW7       29.93F HX  98           
JOPLIN         MOSUNNY   91  73  55 VRB5      29.92F HX  99           
BRANSON        PTSUNNY   91  72  52 SE6       29.96F HX  98           
               
$$
MOZ032>034-039>042-045>050-055>058-069>072-212300-
...CENTRAL MISSOURI...  
  
CITY           SKY/WX    TMP DP  RH WIND       PRES   REMARKS
COLUMBIA       NOT AVBL                                               
ROLLA          MOSUNNY   89  70  53 SW5       29.94F HX  94           
SEDALIA        SUNNY     83  73  72 N7        29.96F                  
WARRENSBURG    MOSUNNY   82  72  69 NE8       29.95S                  
               
$$
MOZ051-052-059>065-212300-
...EAST CENTRAL MISSOURI...
  
CITY           SKY/WX    TMP DP  RH WIND       PRES   REMARKS
ST LOUIS INTL  MOSUNNY   90  67  46 N7        29.91S HX  93           
                   
$$
MOZ072>076-082>087-097>100-106>115-212300-
...SOUTH CENTRAL AND SOUTHEAST MISSOURI...
  
CITY           SKY/WX    TMP DP  RH WIND       PRES   REMARKS
CAPE GIRARDEAU FAIR      91  77  63 S10       29.89S HX 104           
POPLAR BLUFF   FAIR      91  76  61 SW8       29.90S HX 103           
WEST PLAINS    SUNNY     91  72  53 SW5       29.96F HX  98           
                                       
$$